User: anonymous   Login
Location: Knowlton
(51.2333°N, 1.2667°E)
Time: 08:32:55
(UTC+00:00)
Language:

Cosmos 1408 - Orbit

View from above orbital plane
View from above orbital plane
View from above satellite
View from above satellite

Ground track
Ground track

The orbit data is extracted from the following two-line orbital elements,

1 13552U 82092A   21164.85255897  .00001268  00000-0  43913-4 0  9991
2 13552  82.5673 277.6900 0015943 298.3059  61.6571 15.28758183119249
Epoch (UTC): 13 June 2021 20:27:41
Eccentricity: 0.0015943
inclination: 82.5673°
perigee height: 468 km
apogee height: 490 km
right ascension of ascending node: 277.6900°
argument of perigee: 298.3059°
revolutions per day: 15.28758183
mean anomaly at epoch: 61.6571°
orbit number at epoch: 11924

The dashed part of the orbit path shows where the satellite is in the earth's shadow,  

DLR